Tracking 22993 objects as of 11-May-2021
HD Live streaming from Space Station
objects crossing your sky now

FENGYUN 1C DEB

Track FENGYUN 1C DEB now!
10-day predictions


NORAD ID: 32316
Int'l Code: 1999-025CXH
Perigee: 755.6 km
Apogee: 817.8 km
Inclination: 99.6 °
Period: 100.4 minutes
Semi major axis: 7157 km
RCS: 0.0087 m2 (small)
Launch date: May 10, 1999
Source: People's Republic of China (PRC)
Launch site: Taiyaun Space Center, China (TSC)

Note: This is SATELLITE DEBRIS
aabbcc
Your satellite tracking list
Your tracking list is empty




NASA's NSSDC Master Catalog

Two Line Element Set (TLE):
1 32316U 99025CXH 21130.46034128  .00000799  00000-0  30397-3 0  9995
2 32316  99.5503 309.2102 0043418 167.8568 221.2402 14.33640602716406
Source of the keplerian elements: AFSPC